Regional Weather Roundup
Issued by NWS

Home | Current Version | Previous Version | Graphics & Text | Print | Product List | Glossary On
Versions: 1 2 3 4 5 6 7 8 9 10 11 12 13 14 15 16 17 18 19 20 21 22 23 24 25 26 27 28 29 30 31 32 33 34 35 36 37 38 39 40 41 42 43 44 45 46 47 48 49 50
353
ASUS43 KOAX 201310
RWRNE

WEATHER ROUNDUP FOR NEBRASKA
NATIONAL WEATHER SERVICE OMAHA NE
700 AM CST MON FEB 20 2017

NOTES: SATELLITE DATA IS BEING USED TO AUGMENT CLOUD COVER ABOVE
       12000 FEET.
       "FAIR" INDICATES FEW OR NO CLOUDS BELOW 12,000 FEET WITH NO
       SIGNIFICANT WEATHER AND/OR OBSTRUCTIONS TO VISIBILITY.

  * THESE STATIONS DO NOT REPORT WEATHER SUCH AS RAIN...SNOW OR FOG.

NEZ001>004-019>022-054>056-201400-
NEBRASKA PANHANDLE

CITY           SKY/WX    TMP DP  RH WIND       PRES   REMARKS
SCOTTSBLUFF    CLEAR     33  22  63 W9        29.86R WCI  25
ALLIANCE       MOCLDY    39  22  50 NW17      29.80R WCI  30
CHADRON        CLOUDY    43  37  79 NW15      29.80R
KIMBALL        CLEAR     38  22  52 NW22      29.87R WCI  28
SIDNEY         CLEAR     39  19  44 NW20      29.83R WCI  29
$$

NEZ057>060-069>072-079>082-201400-
SOUTHWEST NEBRASKA

CITY           SKY/WX    TMP DP  RH WIND       PRES   REMARKS
NORTH PLATTE   MOCLDY    41  35  79 NW6       29.72S
IMPERIAL       MOCLDY    46  26  45 NW12G21   29.78R
LEXINGTON      CLOUDY    47  42  81 W6        29.71R
MCCOOK         CLOUDY    48  37  65 NW6       29.74R
OGALLALA       CLOUDY    49  26  39 NW18G26   29.77R
$$

NEZ005>010-023>029-035>040-094-201400-
NORTH CENTRAL NEBRASKA

CITY           SKY/WX    TMP DP  RH WIND       PRES   REMARKS
VALENTINE      CLOUDY    43  37  79 W8        29.68R
AINSWORTH      MOCLDY    47  41  79 W9        29.66F
BROKEN BOW     FOG       47  46  97 CALM      29.69S VSB 1/2
O`NEILL        CLOUDY    53  52  97 S10       29.66F FOG
ORD            CLOUDY    53  50  89 S12       29.67F FOG
THEDFORD       CLOUDY    46  38  74 W9        29.71R
$$

NEZ041-046>049-061>064-073>077-083>087-201400-
SOUTH CENTRAL NEBRASKA

CITY           SKY/WX    TMP DP  RH WIND       PRES   REMARKS
GRAND ISLAND   MOCLDY    54  54 100 S10       29.70F
AURORA         CLOUDY    55  54  99 S8        29.70F FOG
HASTINGS       CLOUDY    55  53  93 S7        29.71F
HEBRON         CLOUDY    57  56  94 S7        29.75R
HOLDREGE       CLOUDY    51  49  95 SW7       29.71R FOG
KEARNEY *      CLOUDY    54  48  82 SW8       29.71S
YORK           CLOUDY    55  55 100 S9        29.71F FOG
$$

NEZ011>018-030>034-042>045-201400-
NORTHEAST NEBRASKA

CITY           SKY/WX    TMP DP  RH WIND       PRES   REMARKS
NORFOLK        CLOUDY    56  54  93 S14       29.68F
ALBION         CLOUDY    55  52  90 S7        29.68F FOG
BLAIR          CLOUDY    57  56  95 S12       29.74F FOG
FREMONT        LGT RAIN  57  56  97 SE7       29.73F
TEKAMAH        CLOUDY    56  54  93 SE13      29.73F FOG
WAYNE          CLOUDY    53  53  99 S8        29.71S FOG
$$

NEZ050>053-065>068-078-088>093-201400-
SOUTHEAST NEBRASKA

CITY           SKY/WX    TMP DP  RH WIND       PRES   REMARKS
LINCOLN        CLOUDY    58  57  97 SE7       29.74F
OMAHA EPPLEY   CLOUDY    58  54  86 S21       29.75R
BEATRICE       CLOUDY    59  57  92 S15G21    29.76S
FALLS CITY     CLOUDY    58  56  93 SE12      29.77F
NEBRASKA CITY  LGT RAIN  57  56  99 W7        29.78R
PLATTSMOUTH    CLOUDY    57  55  91 S7        29.77S FOG
$$

NEZ044-045-051>053-067-201400-
OMAHA AREA

CITY           SKY/WX    TMP DP  RH WIND       PRES   REMARKS
OMAHA EPPLEY   CLOUDY    58  54  86 S21       29.75R
BLAIR          CLOUDY    57  56  95 S12       29.74F FOG
FREMONT        LGT RAIN  57  56  97 SE7       29.73F
MILLARD        LGT RAIN  59  57  94 SE7       29.76F
OFFUTT AFB     CLOUDY    95 N/A N/A S7        29.77F
PLATTSMOUTH    CLOUDY    57  55  91 S7        29.77S FOG
WAHOO          CLOUDY    55  53  95 S7        29.73F FOG
$$




USA.gov is the U.S. government's official web portal to all federal, state and local government web resources and services.